• In Deutschland
  • Länderverzeichnis
  • Für 7 Tage
  • Wassertemperatur
  • Satellitenkarten
  • Wetterkarte
  • Widgets
  • user-avatar
    Anmelden

    Stündliche Wetter Orange Walk

    Heute, 19 Juli, Donnerstag

    Zeit Temperatur Niederschläge Wind Luftdruck Luftfeuchtigkeit
    00:00 +26°C° 0 mm 1 m/S 759 mmHg 95%
    01:00 +26°C° 0,1 mm 1 m/S 759 mmHg 96%
    02:00 +26°C° 0,1 mm 1 m/S 759 mmHg 96%
    03:00 +26°C° 0,1 mm 1 m/S 758 mmHg 97%
    04:00 +26°C° 0,2 mm 1 m/S 759 mmHg 97%
    05:00 +26°C° 0,2 mm 1 m/S 759 mmHg 96%
    06:00 +26°C° 0,2 mm 1 m/S 759 mmHg 96%
    07:00 +28°C° 0,2 mm 1 m/S 759 mmHg 88%
    08:00 +30°C° 0,2 mm 2 m/S 759 mmHg 79%
    09:00 +32°C° 0,2 mm 2 m/S 759 mmHg 70%
    10:00 +33°C° 0,6 mm 3 m/S 759 mmHg 68%
    11:00 +34°C° 0,6 mm 3 m/S 759 mmHg 65%
    12:00 +35°C° 0,6 mm 3 m/S 759 mmHg 63%
    13:00 +35°C° 0,3 mm 3 m/S 758 mmHg 61%
    14:00 +35°C° 0,3 mm 3 m/S 758 mmHg 60%
    15:00 +35°C° 0,3 mm 3 m/S 757 mmHg 58%
    16:00 +34°C° 0 mm 3 m/S 757 mmHg 63%
    17:00 +33°C° 0 mm 3 m/S 757 mmHg 68%
    18:00 +31°C° 0 mm 2 m/S 757 mmHg 73%
    19:00 +29°C° 0 mm 2 m/S 758 mmHg 80%
    20:00 +28°C° 0 mm 2 m/S 758 mmHg 86%
    21:00 +26°C° 0 mm 2 m/S 758 mmHg 93%
    22:00 +26°C° 0 mm 2 m/S 758 mmHg 94%
    23:00 +26°C° 0 mm 2 m/S 758 mmHg 95%

    Morgen, 20 Juli, Freitag

    Zeit Temperatur Niederschläge Wind Luftdruck Luftfeuchtigkeit
    00:00 +26°C° 0 mm 2 m/S 758 mmHg 96%
    01:00 +26°C° 0 mm 2 m/S 758 mmHg 96%
    02:00 +26°C° 0 mm 2 m/S 758 mmHg 97%
    03:00 +26°C° 0 mm 2 m/S 758 mmHg 97%
    04:00 +26°C° 0 mm 1 m/S 758 mmHg 96%
    05:00 +26°C° 0 mm 1 m/S 758 mmHg 96%
    06:00 +26°C° 0 mm 1 m/S 758 mmHg 96%
    07:00 +28°C° 0 mm 2 m/S 758 mmHg 86%
    08:00 +30°C° 0 mm 2 m/S 759 mmHg 75%
    09:00 +33°C° 0 mm 3 m/S 759 mmHg 65%
    10:00 +34°C° 0 mm 3 m/S 759 mmHg 59%
    11:00 +36°C° 0 mm 3 m/S 759 mmHg 53%
    12:00 +37°C° 0 mm 3 m/S 758 mmHg 47%
    13:00 +37°C° 0 mm 3 m/S 758 mmHg 47%
    14:00 +37°C° 0 mm 3 m/S 758 mmHg 47%
    15:00 +37°C° 0 mm 3 m/S 757 mmHg 47%
    16:00 +35°C° 0 mm 3 m/S 757 mmHg 54%
    17:00 +34°C° 0 mm 3 m/S 757 mmHg 61%
    18:00 +31°C° 0 mm 2 m/S 757 mmHg 69%
    19:00 +30°C° 0 mm 2 m/S 758 mmHg 76%
    20:00 +28°C° 0 mm 2 m/S 758 mmHg 83%
    21:00 +27°C° 0 mm 2 m/S 759 mmHg 90%
    22:00 +27°C° 0 mm 2 m/S 759 mmHg 91%
    23:00 +26°C° 0 mm 2 m/S 759 mmHg 93%

    übermorgen, 21 Juli, Samstag

    Zeit Temperatur Niederschläge Wind Luftdruck Luftfeuchtigkeit
    00:00 +26°C° 0 mm 1 m/S 759 mmHg 94%
    01:00 +26°C° 0 mm 1 m/S 759 mmHg 95%
    02:00 +26°C° 0 mm 1 m/S 758 mmHg 95%
    03:00 +26°C° 0 mm 1 m/S 758 mmHg 96%
    04:00 +26°C° 0 mm 1 m/S 758 mmHg 96%
    05:00 +26°C° 0 mm 1 m/S 758 mmHg 96%
    06:00 +26°C° 0 mm 1 m/S 758 mmHg 96%
    07:00 +27°C° 0,4 mm 2 m/S 758 mmHg 89%
    08:00 +29°C° 0,4 mm 2 m/S 759 mmHg 83%
    09:00 +31°C° 0,4 mm 3 m/S 759 mmHg 77%
    10:00 +31°C° 1,2 mm 3 m/S 759 mmHg 79%
    11:00 +30°C° 1,2 mm 3 m/S 759 mmHg 82%
    12:00 +30°C° 1,2 mm 3 m/S 759 mmHg 85%
    13:00 +31°C° 1 mm 3 m/S 758 mmHg 84%
    14:00 +31°C° 1 mm 3 m/S 758 mmHg 82%
    15:00 +31°C° 1 mm 3 m/S 758 mmHg 81%
    16:00 +30°C° 0,4 mm 2 m/S 758 mmHg 83%
    17:00 +30°C° 0,4 mm 2 m/S 758 mmHg 86%
    18:00 +29°C° 0,4 mm 2 m/S 758 mmHg 88%
    19:00 +28°C° 0,2 mm 2 m/S 758 mmHg 91%
    20:00 +27°C° 0,2 mm 2 m/S 759 mmHg 94%
    21:00 +27°C° 0,2 mm 2 m/S 759 mmHg 97%
    22:00 +26°C° 0,1 mm 2 m/S 759 mmHg 97%
    23:00 +26°C° 0,1 mm 2 m/S 759 mmHg 97%

    22 Juli, Sonntag

    Zeit Temperatur Niederschläge Wind Luftdruck Luftfeuchtigkeit
    00:00 +26°C° 0,1 mm 1 m/S 759 mmHg 98%
    01:00 +26°C° 0,1 mm 1 m/S 759 mmHg 98%
    02:00 +26°C° 0,1 mm 1 m/S 758 mmHg 98%
    03:00 +26°C° 0,1 mm 1 m/S 758 mmHg 98%
    04:00 +26°C° 0,3 mm 1 m/S 758 mmHg 98%
    05:00 +26°C° 0,3 mm 1 m/S 758 mmHg 98%
    06:00 +26°C° 0,3 mm 1 m/S 758 mmHg 97%
    07:00 +28°C° 0,3 mm 2 m/S 759 mmHg 91%
    08:00 +30°C° 0,3 mm 2 m/S 759 mmHg 85%
    09:00 +31°C° 0,3 mm 3 m/S 759 mmHg 78%
    10:00 +34°C° 0,1 mm 3 m/S 759 mmHg 69%
    11:00 +35°C° 0,1 mm 3 m/S 759 mmHg 59%
    12:00 +37°C° 0,1 mm 4 m/S 759 mmHg 50%
    13:00 +37°C° 0 mm 4 m/S 758 mmHg 49%
    14:00 +37°C° 0 mm 4 m/S 758 mmHg 48%
    15:00 +37°C° 0 mm 4 m/S 757 mmHg 47%
    16:00 +35°C° 0 mm 3 m/S 757 mmHg 54%
    17:00 +34°C° 0 mm 3 m/S 757 mmHg 61%
    18:00 +31°C° 0 mm 2 m/S 758 mmHg 68%
    19:00 +30°C° 0 mm 2 m/S 758 mmHg 76%
    20:00 +28°C° 0 mm 2 m/S 759 mmHg 84%
    21:00 +27°C° 0 mm 1 m/S 759 mmHg 92%
    22:00 +27°C° 0 mm 1 m/S 759 mmHg 94%
    23:00 +26°C° 0 mm 1 m/S 759 mmHg 95%

    23 Juli, Montag

    Zeit Temperatur Niederschläge Wind Luftdruck Luftfeuchtigkeit
    00:00 +26°C° 0 mm 1 m/S 759 mmHg 97%
    01:00 +26°C° 0 mm 1 m/S 758 mmHg 98%
    02:00 +26°C° 0 mm 1 m/S 758 mmHg 98%
    03:00 +26°C° 0 mm 1 m/S 757 mmHg 98%
    04:00 +26°C° 0 mm 1 m/S 758 mmHg 98%
    05:00 +26°C° 0 mm 1 m/S 758 mmHg 98%
    06:00 +24°C° 0 mm 0 m/S 758 mmHg 98%
    07:00 +28°C° 0 mm 1 m/S 758 mmHg 86%
    08:00 +31°C° 0 mm 1 m/S 759 mmHg 75%
    09:00 +34°C° 0 mm 2 m/S 759 mmHg 64%
    10:00 +35°C° 0 mm 2 m/S 759 mmHg 57%
    11:00 +36°C° 0 mm 2 m/S 758 mmHg 51%
    12:00 +38°C° 0 mm 3 m/S 758 mmHg 45%
    13:00 +37°C° 0 mm 3 m/S 758 mmHg 45%
    14:00 +37°C° 0 mm 3 m/S 757 mmHg 44%
    15:00 +37°C° 0 mm 3 m/S 757 mmHg 43%
    16:00 +36°C° 0 mm 3 m/S 757 mmHg 50%
    17:00 +34°C° 0 mm 2 m/S 757 mmHg 58%
    18:00 +31°C° 0 mm 2 m/S 757 mmHg 65%
    19:00 +30°C° 0 mm 2 m/S 758 mmHg 73%
    20:00 +28°C° 0 mm 2 m/S 758 mmHg 82%
    21:00 +27°C° 0 mm 1 m/S 759 mmHg 90%
    22:00 +27°C° 0 mm 1 m/S 759 mmHg 92%
    23:00 +26°C° 0 mm 1 m/S 759 mmHg 94%

    24 Juli, Dienstag

    Zeit Temperatur Niederschläge Wind Luftdruck Luftfeuchtigkeit
    00:00 +26°C° 0 mm 1 m/S 758 mmHg 96%
    01:00 +26°C° 0 mm 1 m/S 758 mmHg 97%
    02:00 +26°C° 0 mm 1 m/S 758 mmHg 97%
    03:00 +26°C° 0 mm 1 m/S 758 mmHg 98%
    04:00 +26°C° 0 mm 1 m/S 758 mmHg 97%
    05:00 +26°C° 0 mm 1 m/S 758 mmHg 97%
    06:00 +26°C° 0 mm 1 m/S 758 mmHg 97%
    07:00 +28°C° 0 mm 1 m/S 759 mmHg 86%
    08:00 +30°C° 0 mm 2 m/S 759 mmHg 75%
    09:00 +34°C° 0 mm 2 m/S 759 mmHg 64%
    10:00 +35°C° 0 mm 2 m/S 759 mmHg 58%
    11:00 +36°C° 0 mm 3 m/S 759 mmHg 52%
    12:00 +37°C° 0 mm 3 m/S 758 mmHg 46%
    13:00 +37°C° 0 mm 3 m/S 758 mmHg 47%
    14:00 +37°C° 0 mm 3 m/S 757 mmHg 47%
    15:00 +37°C° 0 mm 3 m/S 757 mmHg 47%
    16:00 +36°C° 0 mm 3 m/S 757 mmHg 54%
    17:00 +34°C° 0 mm 3 m/S 757 mmHg 60%
    18:00 +32°C° 0 mm 2 m/S 758 mmHg 66%
    19:00 +30°C° 0 mm 2 m/S 758 mmHg 74%
    20:00 +29°C° 0 mm 2 m/S 759 mmHg 81%
    21:00 +28°C° 0 mm 2 m/S 759 mmHg 88%
    22:00 +27°C° 0 mm 2 m/S 759 mmHg 90%
    23:00 +27°C° 0 mm 2 m/S 759 mmHg 91%
    Mehr zeigen